User: anonymous   Login
Location: Newark
(29.9790°N, 31.1340°E)
Time: 18:34:10
(UTC+00:00)
Language:

Explorer 11/Cluster Stage 4 - Orbit

View from above orbital plane
View from above orbital plane
View from above satellite
View from above satellite

Ground track
Ground track

The orbit data is extracted from the following two-line orbital elements,

1   107U 61013A   20019.82012488  .00000292  00000-0  17964-4 0  9998
2   107  28.7887 306.4968 0547084 170.2496 190.9192 14.08894160944653
Epoch (UTC): 19 January 2020 19:40:58
Eccentricity: 0.0547084
inclination: 28.7887°
perigee height: 467 km
apogee height: 1259 km
right ascension of ascending node: 306.4968°
argument of perigee: 170.2496°
revolutions per day: 14.08894160
mean anomaly at epoch: 190.9192°
orbit number at epoch: 94465

The dashed part of the orbit path shows where the satellite is in the earth's shadow,  

DLR